Toledo, OH

5:59 AM EST on January 18, 2018 (GMT -0500)
Toledo Express

Weather History for KTOL - April, 2013

Change the Weather History Date:

Monday, April 22, 2013

  Actual Average Record
Temperature  
Mean Temperature 46 °F 52 °F  
Max Temperature 62 °F 63 °F 87 °F (1985)
Min Temperature 30 °F 41 °F 22 °F (1875)
Degree Days  
Heating Degree Days 19 14  
Month to date heating degree days 449 381  
Since 1 July heating degree days 5876 5807  
Cooling Degree Days 0 0  
Month to date cooling degree days 0 0  
Year to date cooling degree days 0 0  
Moisture  
Dew Point 29 °F    
Average Humidity 56    
Maximum Humidity 85    
Minimum Humidity 27    
Precipitation  
Precipitation 0.00 in 0.10 in 2.89 in (1977)
Month to date precipitation 3.44 2.35  
Year to date precipitation 10.61 8.95  
Snow  
Snow 0.00 in 0.00 in - ()
Month to date snowfall 0.3 1.2  
Since 1 July snowfall 22.4 37.4  
Snow Depth 0.00 in    
Sea Level Pressure  
Sea Level Pressure 30.32 in    
Wind  
Wind Speed 6 mph (East)    
Max Wind Speed 16 mph    
Max Gust Speed 22 mph    
Visibility 10 miles    
Events      
T = Trace of Precipitation, MM = Missing Value Source: NWS Daily Summary

Daily Weather History Graph

Daily Weather History Graph

Search for Another Location

Airport or City:

Trip Planner

Search our weather history database for the weather conditions in past years. The results will help you decide how hot, cold, wet, or windy it might be!

Date:

Astronomy

Apr. 22, 2013 Rise Set
Actual Time 6:44 AM EDT 8:23 PM EDT
Civil Twilight 6:14 AM EDT 8:53 PM EDT
Nautical Twilight 5:39 AM EDT 9:28 PM EDT
Astronomical Twilight 5:01 AM EDT 10:07 PM EDT
Moon 5:09 PM EDT (4/22) 4:41 AM EDT (4/22)
Length of Visible Light 14h 38m
Length of Day
13h 39m
Waxing Gibbous, 87% of the Moon is Illuminated
Apr 22
Waxing Gibbous
Apr 25
Full
May 2
Last Quarter
May 9
New
May 18
First Quarter

Hourly Weather History & Observations

Time (EDT) Temp. Windchill Dew Point Humidity Pressure Visibility Wind Dir Wind Speed Gust Speed Precip Events Conditions
12:52 AM 34.0 °F 28.8 °F 28.0 °F 79% 30.46 in 10.0 mi East 5.8 mph - N/A   Clear
1:52 AM 34.0 °F 29.8 °F 28.0 °F 79% 30.44 in 10.0 mi East 4.6 mph - N/A   Clear
2:52 AM 33.1 °F 28.7 °F 28.0 °F 82% 30.43 in 10.0 mi East 4.6 mph - N/A   Clear
3:52 AM 32.0 °F - 28.0 °F 85% 30.41 in 10.0 mi Calm Calm - N/A   Clear
4:52 AM 33.1 °F - 28.9 °F 85% 30.39 in 10.0 mi Calm Calm - N/A   Clear
5:52 AM 30.0 °F - 27.0 °F 88% 30.38 in 10.0 mi Calm Calm - N/A   Clear
6:52 AM 30.9 °F - 27.0 °F 85% 30.39 in 10.0 mi Calm Calm - N/A   Clear
7:52 AM 35.1 °F 32.2 °F 30.0 °F 82% 30.40 in 9.0 mi ENE 3.5 mph - N/A   Clear
8:52 AM 41.0 °F 38.0 °F 30.0 °F 65% 30.38 in 10.0 mi East 4.6 mph - N/A   Clear
9:52 AM 46.9 °F - 28.9 °F 50% 30.38 in 10.0 mi ESE 5.8 mph - N/A   Clear
10:52 AM 51.1 °F - 27.0 °F 39% 30.38 in 10.0 mi Calm Calm - N/A   Clear
11:52 AM 55.9 °F - 26.1 °F 32% 30.36 in 10.0 mi Variable 3.5 mph - N/A   Clear
12:52 PM 57.0 °F - 24.1 °F 28% 30.35 in 10.0 mi Variable 3.5 mph - N/A   Clear
1:52 PM 60.1 °F - 26.1 °F 27% 30.31 in 10.0 mi East 10.4 mph - N/A   Clear
2:52 PM 61.0 °F - 28.9 °F 30% 30.28 in 10.0 mi East 9.2 mph - N/A   Clear
3:52 PM 61.0 °F - 30.0 °F 31% 30.26 in 10.0 mi East 12.7 mph - N/A   Clear
4:52 PM 60.1 °F - 27.0 °F 28% 30.25 in 10.0 mi ENE 12.7 mph - N/A   Clear
5:52 PM 59.0 °F - 27.0 °F 29% 30.24 in 10.0 mi ENE 12.7 mph - N/A   Clear
6:52 PM 57.0 °F - 25.0 °F 29% 30.22 in 10.0 mi East 13.8 mph 19.6 mph N/A   Clear
7:52 PM 52.0 °F - 30.0 °F 43% 30.21 in 10.0 mi East 10.4 mph - N/A   Clear
8:52 PM 48.9 °F - 33.1 °F 54% 30.21 in 10.0 mi East 9.2 mph - N/A   Clear
9:52 PM 46.9 °F - 33.1 °F 59% 30.20 in 10.0 mi East 8.1 mph - N/A   Clear
10:52 PM 45.0 °F 42.6 °F 33.1 °F 63% 30.20 in 10.0 mi East 4.6 mph - N/A   Clear
11:52 PM 44.1 °F 40.8 °F 34.0 °F 68% 30.19 in 10.0 mi ENE 5.8 mph - N/A   Clear